Date String (YYYY-MM-DD hh:mm:ss) UTC,Instrument flags,Ambient pressure (hPa),Sample flow (lpm),Bypass flow (lpm),Sample temperature (°C),Ambient temperature (°C),ASC tube jacket temperature (°C),LED temperature (°C),Box temperature (°C),Sample RH (%),Span deviation,Mass concentration (μg/m³),Mass concentration (μg/m³),Mass concentration (μg/m³)
DateTimeUTC,F1_M11,P_M11,Q1_M11,Q2_M11,T1_M11,T2_M11,T3_M11,T4_M11,T5_M11,U1_M11,ZSPAN_M11,X0_M11,X2_M11,X1_M11
2021-10-09 21:00:00,,0820.9,5.00,0.00,29.9,29.0,00.0,39.0,31.7,14.3,0000.0,0008.24,0001.74,0000.67
2021-10-09 21:01:00,,0821.0,5.01,0.00,29.9,29.0,00.0,39.0,31.7,14.4,0000.0,0008.15,0001.64,0000.66
2021-10-09 21:02:00,,0821.0,4.99,0.00,29.9,29.0,00.0,39.0,31.7,14.5,0000.0,0007.33,0001.55,0000.65
2021-10-09 21:03:00,,0820.9,5.01,0.00,29.9,29.0,00.0,39.0,31.7,14.6,0000.0,0005.92,0001.46,0000.64
2021-10-09 21:04:00,,0820.9,4.99,0.00,29.9,29.0,00.0,39.0,31.7,14.4,0000.0,0005.74,0001.40,0000.63
2021-10-09 21:05:00,,0820.9,5.00,0.00,29.9,29.0,00.0,39.0,31.7,14.2,0000.0,0006.75,0001.42,0000.62
2021-10-09 21:06:00,,0820.9,5.02,0.00,29.9,29.0,00.0,39.0,31.7,14.2,0000.0,0007.46,0001.53,0000.64
2021-10-09 21:07:00,,0820.9,4.99,0.00,29.9,29.0,00.0,39.0,31.7,14.2,0000.0,0007.32,0001.62,0000.66
2021-10-09 21:08:00,,0820.9,5.00,0.00,29.9,29.0,00.0,39.0,31.6,14.3,0000.0,0007.17,0001.68,0000.67
2021-10-09 21:09:00,,0820.8,5.01,0.00,29.9,29.0,00.0,39.0,31.6,14.2,0000.0,0007.79,0001.73,0000.67
2021-10-09 21:10:00,,0820.9,4.98,0.00,29.8,28.9,00.0,39.0,31.6,14.0,0000.0,0009.17,0001.94,0000.69
2021-10-09 21:11:00,,0821.0,5.00,0.00,29.8,28.9,00.0,39.0,31.6,14.0,0000.0,0009.20,0002.09,0000.69
2021-10-09 21:12:00,,0821.1,5.01,0.00,29.8,28.9,00.0,39.0,31.6,14.3,0000.0,0009.94,0002.19,0000.70
2021-10-09 21:13:00,,0821.1,5.01,0.00,29.8,28.9,00.0,39.0,31.6,14.5,0000.0,0010.34,0002.40,0000.71
2021-10-09 21:14:00,,0821.1,4.99,0.00,29.8,28.9,00.0,39.0,31.6,14.9,0000.0,0011.13,0002.64,0000.73
2021-10-09 21:15:00,,0821.1,5.01,0.00,29.8,28.8,00.0,39.0,31.6,15.2,0000.0,0012.82,0002.84,0000.77
2021-10-09 21:16:00,,0821.0,4.99,0.00,29.8,28.8,00.0,38.9,31.5,15.3,0000.0,0013.72,0003.04,0000.80
2021-10-09 21:17:00,,0821.1,5.00,0.00,29.8,28.8,00.0,38.9,31.5,16.1,0000.0,0015.59,0003.18,0000.83
2021-10-09 21:18:00,,0821.1,5.00,0.00,29.8,28.7,00.0,38.9,31.4,16.0,0000.0,0017.55,0003.28,0000.86
2021-10-09 21:19:00,,0821.4,5.01,0.00,29.8,28.7,00.0,38.9,31.4,15.2,0000.0,0018.40,0003.36,0000.89
2021-10-09 21:20:00,,0821.3,4.98,0.00,29.8,28.7,00.0,38.9,31.4,15.3,0000.0,0018.04,0003.40,0000.91
2021-10-09 21:21:00,,0821.3,5.02,0.00,29.7,28.7,00.0,38.9,31.4,14.9,0000.0,0016.90,0003.35,0000.91
2021-10-09 21:22:00,,0821.3,5.00,0.00,29.7,28.7,00.0,38.9,31.4,14.6,0000.0,0016.42,0003.33,0000.91
2021-10-09 21:23:00,,0821.4,4.99,0.00,29.7,28.7,00.0,38.9,31.4,14.7,0000.0,0016.22,0003.35,0000.91
2021-10-09 21:24:00,,0821.4,5.02,0.00,29.7,28.7,00.0,38.9,31.4,14.2,0000.0,0015.88,0003.27,0000.91
2021-10-09 21:25:00,,0821.4,4.99,0.00,29.7,28.7,00.0,38.9,31.4,14.2,0000.0,0015.74,0003.21,0000.89
2021-10-09 21:26:00,,0821.3,5.01,0.00,29.7,28.7,00.0,38.9,31.4,14.1,0000.0,0014.11,0003.06,0000.87
2021-10-09 21:27:00,,0821.4,4.99,0.00,29.7,28.7,00.0,38.9,31.4,14.2,0000.0,0012.53,0002.86,0000.83
2021-10-09 21:28:00,,0821.4,5.01,0.00,29.6,28.7,00.0,38.9,31.3,14.2,0000.0,0010.28,0002.58,0000.79
2021-10-09 21:29:00,,0821.4,4.98,0.00,29.6,28.7,00.0,38.9,31.3,13.9,0000.0,0008.72,0002.34,0000.76
2021-10-09 21:30:00,,0821.5,5.00,0.00,29.6,28.7,00.0,38.9,31.3,13.5,0000.0,0007.91,0002.12,0000.74
2021-10-09 21:31:00,,0821.4,5.00,0.00,29.6,28.7,00.0,38.9,31.3,13.8,0000.0,0008.49,0002.08,0000.73
2021-10-09 21:32:00,,0821.3,5.00,0.00,29.6,28.7,00.0,38.9,31.3,13.8,0000.0,0008.59,0002.10,0000.72
2021-10-09 21:33:00,,0821.3,5.01,0.00,29.6,28.7,00.0,38.9,31.4,14.1,0000.0,0008.64,0002.08,0000.71
2021-10-09 21:34:00,,0821.4,4.98,0.00,29.6,28.7,00.0,38.8,31.3,14.2,0000.0,0008.49,0002.00,0000.71
2021-10-09 21:35:00,,0821.3,5.00,0.00,29.6,28.7,00.0,38.8,31.3,14.1,0000.0,0008.66,0002.00,0000.72
2021-10-09 21:36:00,,0821.3,5.00,0.00,29.6,28.6,00.0,38.8,31.3,13.8,0000.0,0008.28,0002.01,0000.74
2021-10-09 21:37:00,,0821.2,4.99,0.00,29.6,28.7,00.0,38.8,31.3,13.9,0000.0,0008.48,0002.06,0000.74
2021-10-09 21:38:00,,0821.3,5.00,0.00,29.6,28.7,00.0,38.8,31.3,13.5,0000.0,0008.67,0002.08,0000.75
2021-10-09 21:39:00,,0821.2,4.99,0.00,29.6,28.7,00.0,38.8,31.3,13.8,0000.0,0008.75,0002.07,0000.75
2021-10-09 21:40:00,,0821.2,5.01,0.00,29.6,28.7,00.0,38.8,31.3,13.8,0000.0,0008.44,0002.04,0000.75
2021-10-09 21:41:00,,0821.3,5.00,0.00,29.6,28.7,00.0,38.8,31.3,13.9,0000.0,0008.18,0002.02,0000.75
2021-10-09 21:42:00,,0821.2,5.00,0.00,29.6,28.7,00.0,38.8,31.3,14.1,0000.0,0007.39,0001.98,0000.74
2021-10-09 21:43:00,,0821.1,5.00,0.00,29.6,28.7,00.0,38.8,31.3,13.9,0000.0,0007.02,0001.86,0000.75
2021-10-09 21:44:00,,0821.1,4.99,0.00,29.6,28.7,00.0,38.8,31.3,14.1,0000.0,0006.34,0001.74,0000.74
2021-10-09 21:45:00,,0821.1,4.99,0.00,29.6,28.7,00.0,38.8,31.3,13.9,0000.0,0005.92,0001.77,0000.74
2021-10-09 21:46:00,,0821.0,5.01,0.00,29.6,28.7,00.0,38.8,31.3,13.5,0000.0,0005.43,0001.74,0000.75
2021-10-09 21:47:00,,0820.9,5.00,0.00,29.6,28.7,00.0,38.8,31.3,13.3,0000.0,0005.27,0001.67,0000.74
2021-10-09 21:48:00,,0820.9,5.00,0.00,29.6,28.6,00.0,38.8,31.3,13.1,0000.0,0004.58,0001.67,0000.75
2021-10-09 21:49:00,,0820.9,5.01,0.00,29.6,28.6,00.0,38.8,31.3,13.0,0000.0,0005.54,0001.73,0000.78
2021-10-09 21:50:00,,0821.0,5.01,0.00,29.6,28.6,00.0,38.8,31.3,13.1,0000.0,0006.65,0001.78,0000.80
2021-10-09 21:51:00,,0821.1,4.98,0.00,29.5,28.6,00.0,38.8,31.3,12.9,0000.0,0008.21,0001.89,0000.83
2021-10-09 21:52:00,,0821.1,5.01,0.00,29.6,28.6,00.0,38.8,31.3,12.8,0000.0,0008.94,0001.94,0000.84
2021-10-09 21:53:00,,0821.3,5.00,0.00,29.5,28.6,00.0,38.8,31.3,12.9,0000.0,0009.60,0002.00,0000.85
2021-10-09 21:54:00,,0821.2,5.00,0.00,29.5,28.6,00.0,38.8,31.3,13.2,0000.0,0010.17,0002.05,0000.85
2021-10-09 21:55:00,,0821.4,5.00,0.00,29.5,28.6,00.0,38.7,31.3,13.6,0000.0,0010.20,0002.10,0000.87
2021-10-09 21:56:00,,0821.4,5.00,0.00,29.5,28.6,00.0,38.7,31.2,13.8,0000.0,0010.04,0002.08,0000.90
2021-10-09 21:57:00,,0821.4,5.00,0.00,29.5,28.6,00.0,38.7,31.2,13.7,0000.0,0009.92,0002.04,0000.91
2021-10-09 21:58:00,,0821.4,5.00,0.00,29.5,28.6,00.0,38.7,31.2,13.8,0000.0,0010.60,0002.02,0000.91
2021-10-09 21:59:00,,0821.4,4.99,0.00,29.5,28.6,00.0,38.7,31.3,13.7,0000.0,0010.62,0001.97,0000.90
